◎2008 SEの軌道と予報位置です



 九州の西山・椛島氏は,超新星サーベイの過程で,M33 銀河を撮影した捜索フレ

ーム上に17等級の高速移動天体を見つけました.この天体は,すでに2008年9月20

日に発見された2008 SEと同定されました.この小惑星は,2008年10月10日UTに地球

に0.238 AUまで接近し,16等級まで明るくなります.

 

2008 SE

Epoch 2008 Nov. 30.0 TT = JDT 2454800.5                 MPC      

M  16.43068              (2000.0)            P               Q

n   0.27156085     Peri.  156.16255     +0.97393760     -0.20872518

a   2.3616993      Node   216.24447     +0.17637938     +0.94300999

e   0.4857125      Incl.    8.63486     +0.14260387     +0.25916397

P   3.63           H   18.6           G   0.00           U   6

Residuals in seconds of arc 

080920 G96  0.5-  0.1+    080921 A13  1.0+  0.3-    080925 H45  0.4-  0.2-  

080920 G96  0.3-  0.0     080921 A13  0.7+  0.1-    080925 H45  0.3-  0.3+  

080920 G96  0.2-  0.0     080923 H55  0.0   0.2+    080925 H45  0.1-  0.8+  

080920 G96  0.4-  0.1+    080923 H55  0.0   0.2+    080925 H45  0.8-  0.6+  

080920 J66  0.2+  0.4-    080923 H55  0.1-  0.2+    080925 H45  1.1-  0.8+  

080920 B09  0.1-  0.4-    080923 H55  0.0   0.3+    080926 D62  0.8+  0.2-  

080920 B09  0.1+  0.1-    080923 H45  0.4+  0.5-    080926 D62  0.4+  0.0   

080920 J66  0.0   0.3-    080923 H45  0.4+  0.0     080926 D62  0.0   0.0   

080920 B09  0.3+  0.2+    080923 H45  0.2-  0.1+    080926 D62  0.1+  0.1-  

080920 J66  0.1-  0.2-    080923 H45  0.3+  0.5+    080926 D62  0.0   0.1+  

080920 J95  0.2-  0.4-    080923 H45  0.2-  0.7+    080926 D62  0.1-  0.1+  

080920 J95  0.1-  0.2-    080923 H45  0.1+  0.1+    080926 D62  0.2+  0.1+  

080920 J66  0.3+  0.0     080923 H45  0.5-  0.8-    080926 D62  0.1+  0.1-  

080920 J95  0.1-  0.1-    080923 H36  0.5+  0.1-    080926 D62  0.2-  0.0   

080920 J66  0.2+  0.1+    080923 H36  0.5+  0.0     080926 D62  0.1+  0.2-  

080920 J66  0.8+  0.8+    080923 H36  0.3+  0.0     080926 D62  0.2+  0.2+  

080920 J66  0.8-  0.2+    080923 H36  0.2+  0.1-    080926 D62  0.2+  0.0   

080920 J69  0.0   0.1-    080923 H36  0.4+  0.2-    080926 D62  0.2-  0.1+  

080920 J66  0.2-  0.6-    080924 703  0.9+  1.5-    080926 D62  0.5+  0.0   

080920 J69  0.7-  0.5+    080924 703  0.1-  0.1+    080926 D62  0.1+  0.1-  

080920 J69  0.3+  0.2+    080924 703  0.1-  0.9+    080926 D62  0.5-  0.1-  

080920 A99  0.1+  0.4+    080924 703  0.5-  0.5-    080926 D62  0.0   0.0   

080920 A99  0.1-  0.3+    080924 B09  0.7-  0.3-    080926 D62  0.0   0.3-  

080920 A99  0.5-  0.0     080924 B09  0.3-  0.0     080926 D62  0.6-  0.0   

080920 A99  0.2-  0.1-    080925 H45  0.5-  0.3-    080926 D62  0.0   0.5-  

 

RunOff=2157.9

 

Date/  0h TT  R.A.(2000) Decl.     Delta   r     Daily motion  Mag.  Moon Age

                h  m       。  ,                      ,  / PA 。  V       。

2008 Sept.25  01 27.57  +31 15.1   0.252  1.216    42.5 / 110  17.3   95  .20

          26  01 30.69  +31 00.7   0.250  1.216    42.7 / 111  17.3  108  .12

          27  01 33.77  +30 45.1   0.248  1.215    43.0 / 113  17.2  121  .06

          28  01 36.83  +30 28.1   0.247  1.215    43.2 / 115  17.2  133  .02

          29  01 39.86  +30 09.9   0.246  1.215    43.5 / 116  17.2  145  .00

          30  01 42.86  +29 50.4   0.244  1.215    43.7 / 118  17.2  156  .01

     Oct.  1  01 45.81  +29 29.7   0.243  1.215    44.0 / 120  17.1  165  .03

           2  01 48.73  +29 07.8   0.242  1.215    44.2 / 121  17.1  168  .07

           3  01 51.60  +28 44.7   0.241  1.215    44.4 / 123  17.1  161  .13

           4  01 54.43  +28 20.5   0.241  1.215    44.6 / 124  17.1  151  .20

           5  01 57.20  +27 55.3   0.240  1.216    44.7 / 126  17.0  140  .28

           6  01 59.93  +27 29.0   0.239  1.216    44.9 / 127  17.0  129  .37

           7  02 02.60  +27 01.7   0.239  1.217    45.0 / 129  17.0  118  .46

           8  02 05.22  +26 33.5   0.239  1.217    45.0 / 130  17.0  107  .56

           9  02 07.77  +26 04.5   0.239  1.218    45.1 / 131  16.9   95  .65

          10  02 10.27  +25 34.6   0.238  1.219    45.1 / 133  16.9   83  .75

          11  02 12.71  +25 04.0   0.238  1.220    45.0 / 134  16.9   71  .83

          12  02 15.09  +24 32.7   0.239  1.221    44.9 / 135  16.9   58  .90

          13  02 17.41  +24 00.9   0.239  1.222    44.8 / 136  16.9   45  .96

          14  02 19.66  +23 28.5   0.239  1.223    44.6 / 137  16.8   31  .99

          15  02 21.85  +22 55.6   0.240  1.225    44.4 / 138  16.8   17 1.00

          16  02 23.97  +22 22.4   0.241  1.226    44.1 / 140  16.8    4  .98

          17  02 26.03  +21 48.8   0.241  1.228    43.8 / 141  16.8   12  .93

          18  02 28.02  +21 14.9   0.242  1.229    43.4 / 142  16.8   26  .86

          19  02 29.94  +20 40.9   0.243  1.231    43.0 / 142  16.8   41  .77

          20  02 31.80  +20 06.8   0.245  1.233    42.5 / 143  16.8   55  .67

          21  02 33.59  +19 32.6   0.246  1.235    42.0 / 144  16.7   69  .56

          22  02 35.32  +18 58.5   0.248  1.237    41.5 / 145  16.7   83  .44

          23  02 36.99  +18 24.4   0.249  1.239    40.9 / 146  16.7   96  .34

          24  02 38.60  +17 50.5   0.251  1.241    40.2 / 147  16.7  109  .24

          25  02 40.14  +17 16.9   0.253  1.243    39.6 / 147  16.7  122  .16

          26  02 41.63  +16 43.6   0.255  1.246    38.9 / 148  16.7  135  .09

          27  02 43.06  +16 10.6   0.257  1.248    38.1 / 149  16.7  147  .04

          28  02 44.43  +15 38.1   0.259  1.251    37.3 / 149  16.7  160  .01

          29  02 45.76  +15 06.0   0.262  1.253    36.5 / 150  16.7  170  .00

          30  02 47.03  +14 34.5   0.264  1.256    35.7 / 150  16.7  172  .01

          31  02 48.25  +14 03.5   0.267  1.259    34.8 / 150  16.7  162  .04

     Nov.  1  02 49.44  +13 33.2   0.270  1.261    34.0 / 151  16.7  151  .09

NAKANO

         **** Don't distribute anyone except personal use only ****

                (C) Copyright 2008 OAA/ComputingSection

write mail from CFAD0::NAKANO on 2008-09-27 06:17:12(JST).

 

戻ります。